AUA2PM LOWW-LEPA

Flight info

Callsign AUA2PM
Flight time N/A
Altitude 40000
Route OSPEN DCT ABRUK DCT SETAL DCT DETSA/N0470F410 DCT PIDAD DCT TALEP DCT RARQU DCT BALEN UT250 RIXOT
Aircraft B772/H-SDE2E3FGHIJ5LORVWXY/LB1D1

Departure

Time 2026-05-04 13:20
Airport Vienna International Airport (LOWW)

Arrival

Time N/A
Airport Palma de Mallorca Airport (LEPA)
Time Latitude Longitude Altitude Speed Heading
2026-05-04 12:52 48.11802 16.56498 629 ft 0 kts 26°
2026-05-04 13:11 48.11790 16.56489 614 ft 4 kts 22°
2026-05-04 13:11 48.11764 16.56476 629 ft 4 kts 11°
2026-05-04 13:11 48.11738 16.56474 629 ft 4 kts 347°
2026-05-04 13:11 48.11718 16.56490 629 ft 2 kts 297°
2026-05-04 13:12 48.11717 16.56493 629 ft 0 kts 296°
2026-05-04 13:14 48.11738 16.56429 629 ft 8 kts 296°
2026-05-04 13:14 48.11753 16.56347 624 ft 8 kts 258°
2026-05-04 13:14 48.11713 16.56287 625 ft 8 kts 211°
2026-05-04 13:15 48.11658 16.56257 623 ft 8 kts 179°
2026-05-04 13:15 48.11615 16.56315 625 ft 10 kts 121°
2026-05-04 13:15 48.11568 16.56454 617 ft 19 kts 116°
2026-05-04 13:15 48.11499 16.56665 626 ft 24 kts 116°
2026-05-04 13:16 48.11426 16.56892 626 ft 24 kts 116°
2026-05-04 13:16 48.11352 16.57118 619 ft 24 kts 116°
2026-05-04 13:16 48.11307 16.57254 624 ft 6 kts 113°
2026-05-04 13:16 48.11308 16.57316 621 ft 6 kts 69°
2026-05-04 13:17 48.11342 16.57353 626 ft 6 kts 24°
2026-05-04 13:17 48.11381 16.57381 624 ft 6 kts 26°
2026-05-04 13:17 48.11429 16.57416 625 ft 13 kts 25°
2026-05-04 13:17 48.11525 16.57489 625 ft 16 kts 28°
2026-05-04 13:18 48.11627 16.57542 622 ft 16 kts 356°
2026-05-04 13:18 48.11735 16.57501 621 ft 16 kts 344°
2026-05-04 13:18 48.11841 16.57455 621 ft 16 kts 344°
2026-05-04 13:18 48.11948 16.57411 629 ft 14 kts 345°
2026-05-04 13:19 48.12009 16.57465 620 ft 12 kts 78°
2026-05-04 13:19 48.11998 16.57585 617 ft 12 kts 101°
2026-05-04 13:19 48.11979 16.57700 620 ft 12 kts 105°
2026-05-04 13:19 48.11951 16.57812 628 ft 12 kts 131°
2026-05-04 13:20 48.11822 16.57882 626 ft 37 kts 163°
2026-05-04 13:20 48.11297 16.58107 622 ft 119 kts 164°
2026-05-04 13:20 48.10339 16.58535 1017 ft 154 kts 164°
2026-05-04 13:20 48.09291 16.58962 1984 ft 157 kts 167°
2026-05-04 13:21 48.08242 16.59383 2978 ft 159 kts 168°
2026-05-04 13:21 48.07089 16.59830 3506 ft 184 kts 167°
2026-05-04 13:21 48.05769 16.60005 3742 ft 211 kts 193°
2026-05-04 13:21 48.04471 16.58724 3996 ft 239 kts 227°
2026-05-04 13:22 48.03392 16.56803 4811 ft 243 kts 228°
2026-05-04 13:22 48.02271 16.54833 5560 ft 254 kts 228°
2026-05-04 13:22 48.01083 16.52828 6318 ft 261 kts 227°
2026-05-04 13:22 47.99841 16.50808 7120 ft 265 kts 226°
2026-05-04 13:23 47.98563 16.48771 7886 ft 270 kts 226°
2026-05-04 13:23 47.97331 16.46671 8819 ft 266 kts 230°
2026-05-04 13:23 47.96191 16.44469 9571 ft 271 kts 231°
2026-05-04 13:23 47.95079 16.42255 10371 ft 272 kts 231°
2026-05-04 13:24 47.93896 16.39908 10579 ft 295 kts 231°
2026-05-04 13:24 47.92625 16.37394 11048 ft 309 kts 231°
2026-05-04 13:24 47.91312 16.34808 11826 ft 315 kts 232°
2026-05-04 13:25 47.88618 16.29534 13923 ft 321 kts 231°
2026-05-04 13:25 47.87260 16.26890 14839 ft 323 kts 231°
2026-05-04 13:25 47.85883 16.24215 15458 ft 328 kts 231°
2026-05-04 13:25 47.84496 16.21527 16001 ft 335 kts 232°
2026-05-04 13:26 47.83074 16.18771 16789 ft 337 kts 232°
2026-05-04 13:26 47.81632 16.15983 17492 ft 342 kts 232°
2026-05-04 13:26 47.80175 16.13170 18215 ft 347 kts 232°
2026-05-04 13:26 47.78695 16.10314 18866 ft 350 kts 232°
2026-05-04 13:27 47.77200 16.07433 19496 ft 353 kts 232°
2026-05-04 13:27 47.75695 16.04535 20228 ft 353 kts 232°
2026-05-04 13:27 47.74197 16.01655 20960 ft 355 kts 232°
2026-05-04 13:27 47.72696 15.98772 21527 ft 360 kts 232°
2026-05-04 13:28 47.71152 15.95809 22002 ft 367 kts 233°
2026-05-04 13:28 47.69583 15.92800 22507 ft 372 kts 233°
2026-05-04 13:28 47.67986 15.89741 23042 ft 377 kts 233°
2026-05-04 13:28 47.66366 15.86643 23530 ft 382 kts 233°
2026-05-04 13:29 47.64722 15.83501 23919 ft 387 kts 234°
2026-05-04 13:29 47.63067 15.80347 24467 ft 387 kts 233°
2026-05-04 13:29 47.61409 15.77189 24957 ft 390 kts 233°
2026-05-04 13:29 47.59760 15.74046 25374 ft 393 kts 233°
2026-05-04 13:30 47.58064 15.70819 25741 ft 398 kts 233°
2026-05-04 13:30 47.56357 15.67578 26240 ft 399 kts 234°
2026-05-04 13:30 47.54641 15.64319 26572 ft 404 kts 234°
2026-05-04 13:30 47.52901 15.61021 26944 ft 409 kts 233°
2026-05-04 13:31 47.51142 15.57693 27285 ft 413 kts 234°
2026-05-04 13:31 47.49524 15.54190 27737 ft 412 kts 242°
2026-05-04 13:31 47.48227 15.50404 28173 ft 412 kts 247°
2026-05-04 13:31 47.47209 15.46440 28612 ft 412 kts 255°
2026-05-04 13:32 47.46430 15.42425 29068 ft 413 kts 256°
2026-05-04 13:32 47.45651 15.38311 29356 ft 418 kts 256°
2026-05-04 13:32 47.44864 15.34168 29792 ft 420 kts 256°
2026-05-04 13:32 47.44064 15.29999 30119 ft 423 kts 256°
2026-05-04 13:33 47.43252 15.25810 30505 ft 424 kts 256°
2026-05-04 13:33 47.42432 15.21617 30805 ft 427 kts 256°
2026-05-04 13:33 47.41602 15.17398 31077 ft 430 kts 255°
2026-05-04 13:33 47.40762 15.13138 31343 ft 434 kts 255°
2026-05-04 13:34 47.39933 15.08938 31865 ft 430 kts 255°
2026-05-04 13:34 47.39093 15.04703 32290 ft 430 kts 255°
2026-05-04 13:34 47.38248 15.00443 32499 ft 434 kts 255°
2026-05-04 13:34 47.37401 14.96177 32936 ft 434 kts 255°
2026-05-04 13:35 47.36550 14.91900 33170 ft 437 kts 255°
2026-05-04 13:35 47.34823 14.83244 33681 ft 442 kts 254°
2026-05-04 13:35 47.33955 14.78904 34098 ft 441 kts 255°
2026-05-04 13:36 47.33087 14.74574 34343 ft 442 kts 254°
2026-05-04 13:36 47.32223 14.70276 34513 ft 445 kts 255°
2026-05-04 13:36 47.31341 14.65894 34749 ft 446 kts 255°
2026-05-04 13:36 47.30458 14.61518 35006 ft 447 kts 254°
2026-05-04 13:37 47.29569 14.57122 35180 ft 449 kts 254°
2026-05-04 13:37 47.28678 14.52724 35568 ft 445 kts 253°
2026-05-04 13:37 47.27794 14.48375 35987 ft 442 kts 254°
2026-05-04 13:37 47.27209 14.45503 36140 ft 442 kts 254°
2026-05-04 13:38 47.26024 14.39690 36379 ft 444 kts 253°
2026-05-04 13:38 47.25149 14.35408 36746 ft 441 kts 253°
2026-05-04 13:38 47.24266 14.31092 37001 ft 441 kts 253°
2026-05-04 13:38 47.23378 14.26768 37178 ft 442 kts 253°
2026-05-04 13:39 47.22485 14.22440 37313 ft 443 kts 253°
2026-05-04 13:39 47.21587 14.18106 37461 ft 443 kts 253°
2026-05-04 13:39 47.20684 14.13771 37577 ft 443 kts 253°
2026-05-04 13:39 47.19782 14.09441 37732 ft 443 kts 253°
2026-05-04 13:40 47.18879 14.05117 37865 ft 443 kts 252°
2026-05-04 13:40 47.17987 14.00848 37999 ft 443 kts 252°
2026-05-04 13:40 47.17081 13.96524 38158 ft 443 kts 252°
2026-05-04 13:40 47.16173 13.92197 38277 ft 443 kts 252°
2026-05-04 13:41 47.15264 13.87873 38406 ft 443 kts 252°
2026-05-04 13:41 47.14351 13.83543 38567 ft 444 kts 252°
2026-05-04 13:41 47.13437 13.79214 38699 ft 444 kts 252°
2026-05-04 13:42 47.11605 13.70565 38929 ft 443 kts 252°
2026-05-04 13:42 47.10687 13.66248 39028 ft 444 kts 252°
2026-05-04 13:42 47.09779 13.61983 39156 ft 444 kts 252°
2026-05-04 13:42 47.08855 13.57654 39247 ft 445 kts 252°
2026-05-04 13:43 47.07930 13.53327 39383 ft 445 kts 252°
2026-05-04 13:43 47.07000 13.48994 39516 ft 445 kts 252°
2026-05-04 13:43 47.06069 13.44657 39622 ft 446 kts 252°
2026-05-04 13:43 47.05135 13.40317 39733 ft 447 kts 252°
2026-05-04 13:44 47.04198 13.35966 39859 ft 448 kts 252°
2026-05-04 13:44 47.03257 13.31617 39970 ft 448 kts 252°
2026-05-04 13:44 47.02314 13.27264 40094 ft 448 kts 252°
2026-05-04 13:44 47.01381 13.22966 40200 ft 449 kts 252°
2026-05-04 13:45 47.00434 13.18611 40325 ft 449 kts 252°
2026-05-04 13:45 46.99485 13.14254 40429 ft 449 kts 252°
2026-05-04 13:45 46.98535 13.09904 40537 ft 448 kts 252°
2026-05-04 13:45 46.97583 13.05557 40682 ft 448 kts 252°
2026-05-04 13:46 46.95678 12.96883 40924 ft 447 kts 252°
2026-05-04 13:46 46.93777 12.88260 41024 ft 449 kts 252°
2026-05-04 13:47 46.91856 12.79578 41030 ft 449 kts 252°
2026-05-04 13:47 46.89928 12.70902 41046 ft 448 kts 252°
2026-05-04 13:48 46.87998 12.62259 41048 ft 447 kts 252°
2026-05-04 13:48 46.86079 12.53694 41074 ft 446 kts 252°
2026-05-04 13:49 46.84148 12.45104 41091 ft 445 kts 252°
2026-05-04 13:49 46.82211 12.36529 41118 ft 444 kts 251°
2026-05-04 13:50 46.79535 12.28461 41135 ft 444 kts 235°
2026-05-04 13:50 46.75371 12.21911 41134 ft 445 kts 221°
2026-05-04 13:51 46.70571 12.16195 41026 ft 446 kts 220°
2026-05-04 13:51 46.65743 12.10504 41038 ft 446 kts 220°
2026-05-04 13:52 46.58521 12.01900 41043 ft 448 kts 221°
2026-05-04 13:53 46.53734 11.96168 41037 ft 450 kts 221°
2026-05-04 13:53 46.48902 11.90394 41046 ft 451 kts 221°
2026-05-04 13:54 46.41632 11.81738 41054 ft 451 kts 221°
2026-05-04 13:55 46.34345 11.73096 41046 ft 451 kts 221°
2026-05-04 13:55 46.27095 11.64525 41054 ft 450 kts 221°
2026-05-04 13:56 46.22246 11.58809 41054 ft 449 kts 221°
2026-05-04 13:57 46.15796 11.51228 41052 ft 449 kts 221°
2026-05-04 13:58 46.05345 11.38996 41053 ft 446 kts 221°
2026-05-04 13:58 45.98926 11.31512 41055 ft 446 kts 221°
2026-05-04 13:59 45.94104 11.25905 41052 ft 446 kts 221°
2026-05-04 14:00 45.86081 11.16605 41055 ft 446 kts 221°
2026-05-04 14:00 45.79634 11.09159 41055 ft 448 kts 220°
2026-05-04 14:01 45.74771 11.03556 41062 ft 449 kts 220°
2026-05-04 14:02 45.67458 10.95154 41051 ft 449 kts 220°
2026-05-04 14:02 45.62583 10.89571 41055 ft 449 kts 220°
2026-05-04 14:03 45.57741 10.84038 41056 ft 449 kts 220°
2026-05-04 14:03 45.52862 10.78475 41044 ft 449 kts 220°
2026-05-04 14:04 45.45556 10.70169 41044 ft 447 kts 220°
2026-05-04 14:04 45.40688 10.64650 41049 ft 447 kts 220°
2026-05-04 14:05 45.33425 10.56438 41069 ft 447 kts 220°
2026-05-04 14:06 45.28555 10.50948 41065 ft 447 kts 221°
2026-05-04 14:06 45.23684 10.45470 41078 ft 447 kts 221°
2026-05-04 14:07 45.18809 10.39998 41072 ft 447 kts 221°
2026-05-04 14:07 45.13967 10.34577 41067 ft 447 kts 221°
2026-05-04 14:08 45.09091 10.29130 41069 ft 446 kts 221°
2026-05-04 14:08 45.04222 10.23702 41074 ft 445 kts 221°
2026-05-04 14:09 44.96924 10.15589 41074 ft 445 kts 221°
2026-05-04 14:10 44.89665 10.07546 41078 ft 444 kts 221°
2026-05-04 14:10 44.84805 10.02176 41079 ft 444 kts 221°
2026-05-04 14:11 44.79945 9.96817 41094 ft 444 kts 221°
2026-05-04 14:11 44.72650 9.88797 41088 ft 443 kts 221°
2026-05-04 14:12 44.67821 9.83502 41092 ft 443 kts 221°
2026-05-04 14:13 44.60528 9.75527 41096 ft 443 kts 221°
2026-05-04 14:13 44.55663 9.70222 41086 ft 442 kts 221°
2026-05-04 14:14 44.50840 9.64975 41092 ft 441 kts 221°
2026-05-04 14:14 44.43567 9.57082 41099 ft 440 kts 221°
2026-05-04 14:15 44.33885 9.46613 41098 ft 439 kts 221°
2026-05-04 14:16 44.26667 9.38837 41104 ft 438 kts 220°